timestamp,surface_pressure_avg,surface_temp_avg,battery_voltage,lat,long
2023-01-22 00:09:01+00:00,352.3546,2.2,12.41,47.84626,-54.09684
2023-01-22 00:19:01+00:00,348.7813,2.2,12.41,47.84626,-54.09684
2023-01-22 00:29:01+00:00,345.5429,2.3,12.41,47.84626,-54.09684
2023-01-22 00:39:01+00:00,336.9996,2.25,12.41,47.84626,-54.09684
2023-01-22 00:49:01+00:00,332.9012,2.3,12.41,47.84626,-54.09684
2023-01-22 00:59:01+00:00,333.4363,2.3,12.41,47.84626,-54.09684
2023-01-22 01:09:01+00:00,326.4464,2.3,12.41,47.84626,-54.09684
2023-01-22 01:19:00+00:00,316.3013,2.57,12.41,47.84626,-54.09684
2023-01-22 01:29:00+00:00,308.5613,2.7,12.41,47.84626,-54.09684
2023-01-22 01:39:00+00:00,302.3847,2.6,12.41,47.84626,-54.09684
2023-01-22 01:49:00+00:00,296.093,2.49,12.41,47.84626,-54.09684
2023-01-22 01:59:00+00:00,291.8347,2.58,12.41,47.84626,-54.09684
2023-01-22 02:09:00+00:00,282.5264,2.5,12.41,47.84626,-54.09684
2023-01-22 02:19:01+00:00,275.4098,2.29,12.41,47.84626,-54.09684
2023-01-22 02:29:01+00:00,267.9514,2.3,12.41,47.84626,-54.09684
2023-01-22 02:39:01+00:00,259.5764,2.3,12.41,47.84626,-54.09684
2023-01-22 02:49:01+00:00,249.3947,2.3,12.41,47.84626,-54.09684
2023-01-22 02:59:01+00:00,241.6215,2.3,12.41,47.84626,-54.09684
2023-01-22 03:09:01+00:00,233.0897,2.3,12.41,47.84626,-54.09684
2023-01-22 03:19:00+00:00,225.9998,2.3,12.41,47.84626,-54.09684
2023-01-22 03:29:00+00:00,221.2631,2.34,12.41,47.84626,-54.09684
2023-01-22 03:39:00+00:00,213.9581,2.39,12.41,47.84626,-54.09684
2023-01-22 03:49:00+00:00,205.0164,2.35,12.41,47.84626,-54.09684
2023-01-22 03:59:00+00:00,200.6481,2.32,12.41,47.84626,-54.09684
2023-01-22 04:09:00+00:00,197.5765,2.35,12.41,47.84626,-54.09684
2023-01-22 04:19:00+00:00,192.4865,2.35,12.41,47.84626,-54.09684
2023-01-22 04:29:00+00:00,186.0331,2.31,12.41,47.84626,-54.09684
2023-01-22 04:39:00+00:00,180.4531,2.38,12.41,47.84626,-54.09684
2023-01-22 04:49:00+00:00,177.9898,2.4,12.41,47.84626,-54.09684
2023-01-22 04:59:00+00:00,176.7715,2.4,12.41,47.84626,-54.09684
2023-01-22 05:09:00+00:00,173.7782,2.4,12.41,47.84626,-54.09684
2023-01-22 05:19:00+00:00,174.2315,2.4,12.41,47.84626,-54.09684
2023-01-22 05:29:00+00:00,177.9832,2.4,12.41,47.84626,-54.09684
2023-01-22 05:39:00+00:00,176.4631,2.4,12.41,47.84626,-54.09684
2023-01-22 05:49:00+00:00,174.2098,2.4,12.41,47.84626,-54.09684
2023-01-22 05:59:00+00:00,177.5031,2.4,12.41,47.84626,-54.09684
2023-01-22 06:09:00+00:00,183.5015,2.49,12.41,47.84626,-54.09684
2023-01-22 06:19:00+00:00,185.2132,2.49,12.41,47.84626,-54.09684
2023-01-22 06:29:00+00:00,182.2898,2.49,12.41,47.84626,-54.09684
2023-01-22 06:39:00+00:00,182.9881,2.49,12.41,47.84626,-54.09684
2023-01-22 06:49:00+00:00,193.6415,2.5,12.41,47.84626,-54.09684
2023-01-22 06:59:00+00:00,200.6331,2.49,12.41,47.84626,-54.09684
2023-01-22 07:09:00+00:00,203.0981,2.49,12.41,47.84626,-54.09684
2023-01-22 07:19:00+00:00,211.8448,2.5,12.41,47.84626,-54.09684
2023-01-22 07:29:00+00:00,217.4481,2.5,12.41,47.84626,-54.09684
2023-01-22 07:39:00+00:00,221.6831,2.5,12.41,47.84626,-54.09684
2023-01-22 07:49:00+00:00,233.0381,2.5,12.41,47.84626,-54.09684
2023-01-22 07:59:00+00:00,240.8514,2.5,12.41,47.84626,-54.09684
2023-01-22 08:09:00+00:00,241.6064,2.5,12.41,47.84626,-54.09684
2023-01-22 08:19:00+00:00,248.0731,2.5,12.41,47.84626,-54.09684
2023-01-22 08:29:00+00:00,259.0964,2.52,12.41,47.84626,-54.09684
2023-01-22 08:39:00+00:00,263.5547,2.57,12.41,47.84626,-54.09684
2023-01-22 08:49:00+00:00,266.3381,2.52,12.41,47.84626,-54.09684
2023-01-22 08:59:00+00:00,276.4681,2.5,12.41,47.84626,-54.09684
2023-01-22 09:09:00+00:00,286.8314,2.63,12.41,47.84626,-54.09684
2023-01-22 09:19:00+00:00,292.3181,2.6,12.41,47.84626,-54.09684
2023-01-22 09:29:00+00:00,302.2247,2.5,12.41,47.84626,-54.09684
2023-01-22 09:39:00+00:00,312.0096,2.57,12.41,47.84626,-54.09684
2023-01-22 09:49:00+00:00,318.803,2.53,12.41,47.84626,-54.09684
2023-01-22 09:59:00+00:00,325.7863,2.54,12.41,47.84626,-54.09684
2023-01-22 10:09:00+00:00,339.973,2.51,12.41,47.84626,-54.09684
2023-01-22 10:19:00+00:00,349.0396,2.5,12.41,47.84626,-54.09684
2023-01-22 10:29:00+00:00,352.5179,2.56,12.41,47.84626,-54.09684
2023-01-22 10:39:00+00:00,359.3129,2.57,12.41,47.84626,-54.09684
2023-01-22 10:49:00+00:00,369.733,2.56,12.41,47.84626,-54.09684
2023-01-22 10:59:00+00:00,372.9363,2.6,12.41,47.84626,-54.09684
2023-01-22 11:09:00+00:00,377.9879,2.6,12.41,47.84626,-54.09684
2023-01-22 11:19:00+00:00,389.8214,2.6,12.41,47.84626,-54.09684
2023-01-22 11:29:00+00:00,395.6462,2.6,12.41,47.84626,-54.09684
2023-01-22 11:39:00+00:00,392.4746,2.6,12.41,47.84626,-54.09684
2023-01-22 11:49:00+00:00,398.463,2.6,12.41,47.84626,-54.09684
2023-01-22 11:59:00+00:00,409.5764,2.62,12.41,47.84626,-54.09684
2023-01-22 12:09:00+00:00,407.5645,2.65,12.41,47.84626,-54.09684
2023-01-22 12:19:00+00:00,402.2612,2.6,12.41,47.84626,-54.09684
2023-01-22 12:29:00+00:00,406.0379,2.6,12.41,47.84626,-54.09684
2023-01-22 12:39:00+00:00,408.028,2.62,12.41,47.84626,-54.09684
2023-01-22 12:49:00+00:00,403.5646,2.6,12.41,47.84626,-54.09684
2023-01-22 12:59:00+00:00,399.3429,2.59,12.41,47.84626,-54.09684
2023-01-22 13:09:00+00:00,401.293,2.6,12.41,47.84626,-54.09684
2023-01-22 13:19:01+00:00,401.7646,2.6,12.73,47.84626,-54.09684
2023-01-22 13:29:01+00:00,396.5113,2.6,12.73,47.84626,-54.09684
2023-01-22 13:39:01+00:00,389.4529,2.5,12.73,47.84626,-54.09684
2023-01-22 13:49:01+00:00,384.4678,2.5,12.73,47.84626,-54.09684
2023-01-22 13:59:01+00:00,378.9079,2.53,12.73,47.84626,-54.09684
2023-01-22 14:09:01+00:00,371.7313,2.5,12.73,47.84626,-54.09684
2023-01-22 14:19:00+00:00,363.228,2.5,13.29,47.84626,-54.09684
2023-01-22 14:29:00+00:00,351.903,2.5,13.29,47.84626,-54.09684
2023-01-22 14:39:00+00:00,341.8929,2.5,13.29,47.84626,-54.09684
2023-01-22 14:49:00+00:00,333.9796,2.5,13.29,47.84626,-54.09684
2023-01-22 14:59:00+00:00,326.4063,2.56,13.29,47.84626,-54.09684
2023-01-22 15:09:00+00:00,316.0347,2.59,13.29,47.84626,-54.09684
2023-01-22 15:19:00+00:00,306.348,2.59,13.29,47.84626,-54.09684
2023-01-22 15:29:00+00:00,293.288,2.59,13.29,47.84626,-54.09684
2023-01-22 15:39:00+00:00,281.6797,2.59,13.29,47.84626,-54.09684
2023-01-22 15:49:00+00:00,271.4631,2.6,13.29,47.84626,-54.09684
2023-01-22 15:59:00+00:00,263.9114,2.6,13.29,47.84626,-54.09684
2023-01-22 16:09:00+00:00,250.7214,2.6,13.29,47.84626,-54.09684
2023-01-22 16:19:00+00:00,238.1165,2.6,13.68,47.84626,-54.09684
2023-01-22 16:29:00+00:00,230.7698,2.63,13.68,47.84626,-54.09684
2023-01-22 16:39:00+00:00,226.4597,2.69,13.68,47.84626,-54.09684
2023-01-22 16:49:00+00:00,220.0414,2.7,13.68,47.84626,-54.09684
2023-01-22 16:59:00+00:00,213.6614,2.7,13.68,47.84626,-54.09684
2023-01-22 17:09:00+00:00,208.0065,2.7,13.68,47.84626,-54.09684
2023-01-22 17:19:00+00:00,202.9198,2.7,13.53,47.84626,-54.09684
2023-01-22 17:29:00+00:00,197.9814,2.7,13.53,47.84626,-54.09684
2023-01-22 17:39:00+00:00,192.4948,2.67,13.53,47.84626,-54.09684
2023-01-22 17:49:00+00:00,188.8965,2.67,13.53,47.84626,-54.09684
2023-01-22 17:59:00+00:00,186.8215,2.7,13.53,47.84626,-54.09684
2023-01-22 18:09:00+00:00,185.5498,2.7,13.53,47.84626,-54.09684
2023-01-22 18:19:00+00:00,186.9315,2.7,12.89,47.84626,-54.09684
2023-01-22 18:29:00+00:00,185.6815,2.7,12.89,47.84626,-54.09684
2023-01-22 18:39:00+00:00,180.9215,2.7,12.89,47.84626,-54.09684
2023-01-22 18:49:00+00:00,181.2331,2.7,12.89,47.84626,-54.09684
2023-01-22 18:59:00+00:00,186.9014,2.7,12.89,47.84626,-54.09684
2023-01-22 19:09:00+00:00,189.9798,2.7,12.89,47.84626,-54.09684
2023-01-22 19:19:01+00:00,188.6165,2.7,12.81,47.84626,-54.09684
2023-01-22 19:29:01+00:00,192.2148,2.7,12.81,47.84626,-54.09684
2023-01-22 19:39:01+00:00,199.2031,2.69,12.81,47.84626,-54.09684
2023-01-22 19:49:01+00:00,199.5814,2.7,12.81,47.84626,-54.09684
2023-01-22 19:59:01+00:00,198.6431,2.7,12.81,47.84626,-54.09684
2023-01-22 20:09:01+00:00,208.3814,2.7,12.81,47.84626,-54.09684
2023-01-22 20:19:00+00:00,218.2314,2.7,12.73,47.84626,-54.09684
2023-01-22 20:29:00+00:00,218.6981,2.7,12.73,47.84626,-54.09684
2023-01-22 20:39:00+00:00,223.0864,2.7,12.73,47.84626,-54.09684
2023-01-22 20:49:00+00:00,236.5081,2.7,12.73,47.84626,-54.09684
2023-01-22 20:59:00+00:00,243.2298,2.7,12.73,47.84626,-54.09684
2023-01-22 21:09:00+00:00,244.3065,2.68,12.73,47.84626,-54.09684
2023-01-22 21:19:00+00:00,249.6147,2.63,12.65,47.84626,-54.09684
2023-01-22 21:29:00+00:00,261.7814,2.66,12.65,47.84626,-54.09684
2023-01-22 21:39:00+00:00,270.323,2.68,12.65,47.84626,-54.09684
2023-01-22 21:49:00+00:00,272.3681,2.67,12.65,47.84626,-54.09684
2023-01-22 21:59:00+00:00,278.6447,2.66,12.65,47.84626,-54.09684
2023-01-22 22:09:00+00:00,293.0797,2.69,12.65,47.84626,-54.09684
2023-01-22 22:19:00+00:00,305.3247,2.7,12.65,47.84626,-54.09684
2023-01-22 22:29:00+00:00,308.843,2.57,12.65,47.84626,-54.09684
2023-01-22 22:39:00+00:00,315.6346,2.44,12.65,47.84626,-54.09684
2023-01-22 22:49:00+00:00,331.6664,2.4,12.65,47.84626,-54.09684
2023-01-22 22:59:00+00:00,339.4913,2.4,12.65,47.84626,-54.09684
2023-01-22 23:09:00+00:00,342.5279,2.39,12.65,47.84626,-54.09684
2023-01-22 23:19:00+00:00,350.4062,2.38,12.65,47.84626,-54.09684
2023-01-22 23:29:00+00:00,355.7963,2.4,12.65,47.84626,-54.09684
2023-01-22 23:39:00+00:00,354.4646,2.4,12.65,47.84626,-54.09684
2023-01-22 23:49:00+00:00,357.2896,2.4,12.65,47.84626,-54.09684
2023-01-22 23:59:00+00:00,366.2013,2.47,12.65,47.84626,-54.09684
